Time,TemperatureF,DewpointF,PressureIn,WindDirection,WindDirectionDegrees,WindSpeedMPH,WindSpeedGustMPH,Humidity,HourlyPrecipIn,Conditions,Clouds,dailyrainin,SoftwareType,DateUTC
2013-05-18 00:08:00,66.6,63.9,29.82,ENE,67,0.0,-999.0,91,-99.99,,,0.00,Acu-Link.com,2013-05-18 04:08:00,
2013-05-18 00:23:00,66.4,63.4,29.82,ENE,67,0.0,-999.0,90,-99.99,,,0.00,Acu-Link.com,2013-05-18 04:23:00,
2013-05-18 00:38:00,66.2,63.2,29.83,SW,225,0.0,-999.0,90,-99.99,,,0.00,Acu-Link.com,2013-05-18 04:38:00,
2013-05-18 00:54:00,65.5,64.0,29.82,NE,45,1.1,-999.0,95,-99.99,,,0.03,Acu-Link.com,2013-05-18 04:54:00,
2013-05-18 01:09:00,65.3,64.1,29.82,ENE,67,2.2,-999.0,96,-99.99,,,0.04,Acu-Link.com,2013-05-18 05:09:00,
2013-05-18 01:24:00,65.3,64.1,29.81,NE,45,1.7,-999.0,96,-99.99,,,0.04,Acu-Link.com,2013-05-18 05:24:00,
2013-05-18 01:39:00,65.3,64.4,29.81,East,90,0.0,-999.0,97,-99.99,,,0.04,Acu-Link.com,2013-05-18 05:39:00,
2013-05-18 01:54:00,65.1,64.2,29.80,ENE,67,1.7,-999.0,97,-99.99,,,0.04,Acu-Link.com,2013-05-18 05:54:00,
2013-05-18 02:10:00,65.1,64.5,29.79,NE,45,1.1,-999.0,98,-99.99,,,0.04,Acu-Link.com,2013-05-18 06:10:00,
2013-05-18 02:25:00,64.9,64.6,29.80,ENE,67,0.0,-999.0,99,-99.99,,,0.04,Acu-Link.com,2013-05-18 06:25:00,
2013-05-18 02:40:00,64.8,64.5,29.80,South,180,0.0,-999.0,99,-99.99,,,0.04,Acu-Link.com,2013-05-18 06:40:00,
2013-05-18 02:55:00,64.8,64.5,29.80,SW,225,0.0,-999.0,99,-99.99,,,0.04,Acu-Link.com,2013-05-18 06:55:00,
2013-05-18 03:10:00,64.8,64.5,29.81,West,270,0.0,-999.0,99,-99.99,,,0.04,Acu-Link.com,2013-05-18 07:10:00,
2013-05-18 03:26:00,64.9,64.6,29.80,SSE,157,0.0,-999.0,99,-99.99,,,0.04,Acu-Link.com,2013-05-18 07:26:00,
2013-05-18 03:41:00,64.8,64.5,29.80,NE,45,0.0,-999.0,99,-99.99,,,0.04,Acu-Link.com,2013-05-18 07:41:00,
2013-05-18 03:56:00,64.8,64.5,29.80,NE,45,0.0,-999.0,99,-99.99,,,0.04,Acu-Link.com,2013-05-18 07:56:00,
2013-05-18 04:12:00,64.8,64.5,29.79,NNE,22,0.0,-999.0,99,-99.99,,,0.04,Acu-Link.com,2013-05-18 08:12:00,
2013-05-18 04:27:00,64.8,64.5,29.79,ENE,67,0.0,-999.0,99,-99.99,,,0.04,Acu-Link.com,2013-05-18 08:27:00,
2013-05-18 04:42:00,64.6,64.3,29.78,NE,45,0.0,-999.0,99,-99.99,,,0.04,Acu-Link.com,2013-05-18 08:42:00,
2013-05-18 04:57:00,64.6,64.3,29.78,ENE,67,0.0,-999.0,99,-99.99,,,0.04,Acu-Link.com,2013-05-18 08:57:00,
2013-05-18 05:12:00,64.4,64.1,29.79,SSW,202,0.0,-999.0,99,-99.99,,,0.04,Acu-Link.com,2013-05-18 09:12:00,
2013-05-18 05:27:00,64.6,64.3,29.79,SSE,157,2.2,-999.0,99,-99.99,,,0.04,Acu-Link.com,2013-05-18 09:27:00,
2013-05-18 05:42:00,64.6,64.3,29.80,SSE,157,2.7,-999.0,99,-99.99,,,0.04,Acu-Link.com,2013-05-18 09:42:00,
2013-05-18 05:58:00,64.9,64.6,29.81,South,180,2.7,-999.0,99,-99.99,,,0.04,Acu-Link.com,2013-05-18 09:58:00,
2013-05-18 06:13:00,65.1,64.8,29.81,South,180,2.2,-999.0,99,-99.99,,,0.04,Acu-Link.com,2013-05-18 10:13:00,
2013-05-18 06:28:00,64.9,64.6,29.81,SE,135,1.7,-999.0,99,-99.99,,,0.04,Acu-Link.com,2013-05-18 10:28:00,
2013-05-18 06:43:00,64.8,64.5,29.81,West,270,0.0,-999.0,99,-99.99,,,0.04,Acu-Link.com,2013-05-18 10:43:00,
2013-05-18 06:59:00,64.8,64.5,29.82,ENE,67,0.0,-999.0,99,-99.99,,,0.04,Acu-Link.com,2013-05-18 10:59:00,
2013-05-18 07:14:00,64.6,64.3,29.81,NE,45,0.0,-999.0,99,-99.99,,,0.05,Acu-Link.com,2013-05-18 11:14:00,
2013-05-18 07:29:00,64.6,64.3,29.81,NNE,22,0.0,-999.0,99,-99.99,,,0.05,Acu-Link.com,2013-05-18 11:29:00,
2013-05-18 07:45:00,64.9,64.6,29.81,ESE,112,0.0,-999.0,99,-99.99,,,0.05,Acu-Link.com,2013-05-18 11:45:00,
2013-05-18 08:00:00,65.3,65.0,29.81,NNE,22,0.0,-999.0,99,-99.99,,,0.06,Acu-Link.com,2013-05-18 12:00:00,
2013-05-18 08:15:00,65.5,65.2,29.82,ESE,112,0.0,-999.0,99,-99.99,,,0.06,Acu-Link.com,2013-05-18 12:15:00,
2013-05-18 08:30:00,65.8,65.5,29.82,ENE,67,1.7,-999.0,99,-99.99,,,0.06,Acu-Link.com,2013-05-18 12:30:00,
2013-05-18 08:46:00,66.7,66.4,29.82,NE,45,2.2,-999.0,99,-99.99,,,0.06,Acu-Link.com,2013-05-18 12:46:00,
2013-05-18 09:01:00,67.5,66.6,29.81,NNE,22,2.7,-999.0,97,-99.99,,,0.06,Acu-Link.com,2013-05-18 13:01:00,
2013-05-18 09:16:00,68.0,66.5,29.82,NE,45,2.2,-999.0,95,-99.99,,,0.06,Acu-Link.com,2013-05-18 13:16:00,
2013-05-18 09:31:00,69.3,66.9,29.81,NE,45,2.7,-999.0,92,-99.99,,,0.06,Acu-Link.com,2013-05-18 13:31:00,
2013-05-18 09:46:00,69.6,66.2,29.81,NE,45,2.2,-999.0,89,-99.99,,,0.06,Acu-Link.com,2013-05-18 13:46:00,
2013-05-18 10:02:00,71.4,67.0,29.82,SSE,157,2.7,-999.0,86,-99.99,,,0.06,Acu-Link.com,2013-05-18 14:02:00,
2013-05-18 10:17:00,71.6,66.2,29.82,South,180,5.8,-999.0,83,-99.99,,,0.06,Acu-Link.com,2013-05-18 14:17:00,
2013-05-18 10:32:00,71.1,65.7,29.82,South,180,4.2,-999.0,83,-99.99,,,0.06,Acu-Link.com,2013-05-18 14:32:00,
2013-05-18 10:48:00,71.4,65.6,29.82,SSE,157,2.2,-999.0,82,-99.99,,,0.06,Acu-Link.com,2013-05-18 14:48:00,
2013-05-18 11:03:00,71.6,66.5,29.81,NNW,337,3.2,-999.0,84,-99.99,,,0.06,Acu-Link.com,2013-05-18 15:03:00,
2013-05-18 11:18:00,71.8,66.7,29.82,WNW,292,0.0,-999.0,84,-99.99,,,0.06,Acu-Link.com,2013-05-18 15:18:00,
2013-05-18 11:34:00,72.7,66.2,29.82,South,180,3.2,-999.0,80,-99.99,,,0.06,Acu-Link.com,2013-05-18 15:34:00,
2013-05-18 11:49:00,73.6,65.9,29.82,SSE,157,4.7,-999.0,77,-99.99,,,0.06,Acu-Link.com,2013-05-18 15:49:00,
2013-05-18 12:04:00,72.9,65.6,29.81,SSW,202,2.7,-999.0,78,-99.99,,,0.06,Acu-Link.com,2013-05-18 16:04:00,
2013-05-18 12:20:00,73.2,67.0,29.81,North,0,2.2,-999.0,81,-99.99,,,0.06,Acu-Link.com,2013-05-18 16:20:00,
2013-05-18 12:35:00,75.4,67.3,29.80,South,180,3.7,-999.0,76,-99.99,,,0.06,Acu-Link.com,2013-05-18 16:35:00,
2013-05-18 12:50:00,76.5,67.6,29.80,South,180,3.2,-999.0,74,-99.99,,,0.06,Acu-Link.com,2013-05-18 16:50:00,
2013-05-18 13:05:00,74.1,65.7,29.79,ESE,112,4.2,-999.0,75,-99.99,,,0.06,Acu-Link.com,2013-05-18 17:05:00,
2013-05-18 13:20:00,75.6,66.7,29.79,WNW,292,2.2,-999.0,74,-99.99,,,0.06,Acu-Link.com,2013-05-18 17:20:00,
2013-05-18 13:35:00,78.3,66.8,29.78,SE,135,5.3,-999.0,68,-99.99,,,0.06,Acu-Link.com,2013-05-18 17:35:00,
2013-05-18 13:50:00,74.8,65.2,29.78,SE,135,5.3,-999.0,72,-99.99,,,0.06,Acu-Link.com,2013-05-18 17:50:00,
2013-05-18 14:05:00,74.1,65.7,29.78,South,180,2.7,-999.0,75,-99.99,,,0.06,Acu-Link.com,2013-05-18 18:05:00,
2013-05-18 14:20:00,72.0,66.2,29.78,SSE,157,4.7,-999.0,82,-99.99,,,0.06,Acu-Link.com,2013-05-18 18:20:00,
2013-05-18 14:35:00,72.1,65.9,29.78,South,180,5.3,-999.0,81,-99.99,,,0.06,Acu-Link.com,2013-05-18 18:35:00,
2013-05-18 14:50:00,73.8,67.2,29.77,SSE,157,5.3,-999.0,80,-99.99,,,0.06,Acu-Link.com,2013-05-18 18:50:00,
2013-05-18 15:05:00,73.9,66.6,29.77,South,180,5.3,-999.0,78,-99.99,,,0.06,Acu-Link.com,2013-05-18 19:05:00,
2013-05-18 15:21:00,73.6,66.7,29.77,West,270,2.7,-999.0,79,-99.99,,,0.06,Acu-Link.com,2013-05-18 19:21:00,
2013-05-18 15:36:00,73.4,66.1,29.77,SSE,157,5.8,-999.0,78,-99.99,,,0.06,Acu-Link.com,2013-05-18 19:36:00,
2013-05-18 15:51:00,75.7,66.4,29.76,SSE,157,2.2,-999.0,73,-99.99,,,0.06,Acu-Link.com,2013-05-18 19:51:00,
2013-05-18 16:06:00,73.6,66.7,29.77,South,180,4.2,-999.0,79,-99.99,,,0.06,Acu-Link.com,2013-05-18 20:06:00,
2013-05-18 16:21:00,72.3,65.8,29.76,SSW,202,5.8,-999.0,80,-99.99,,,0.06,Acu-Link.com,2013-05-18 20:21:00,
2013-05-18 16:36:00,71.4,67.7,29.76,SW,225,3.7,-999.0,88,-99.99,,,0.06,Acu-Link.com,2013-05-18 20:36:00,
2013-05-18 16:52:00,72.5,68.7,29.75,SSE,157,3.7,-999.0,88,-99.99,,,0.06,Acu-Link.com,2013-05-18 20:52:00,
2013-05-18 17:07:00,74.5,66.8,29.75,SSE,157,4.2,-999.0,77,-99.99,,,0.06,Acu-Link.com,2013-05-18 21:07:00,
2013-05-18 17:22:00,76.3,67.4,29.74,SSW,202,3.7,-999.0,74,-99.99,,,0.06,Acu-Link.com,2013-05-18 21:22:00,
2013-05-18 17:37:00,76.8,67.1,29.74,South,180,4.7,-999.0,72,-99.99,,,0.06,Acu-Link.com,2013-05-18 21:37:00,
2013-05-18 17:53:00,75.7,67.2,29.74,SSW,202,2.2,-999.0,75,-99.99,,,0.06,Acu-Link.com,2013-05-18 21:53:00,
2013-05-18 18:08:00,75.7,66.8,29.74,SSE,157,3.7,-999.0,74,-99.99,,,0.06,Acu-Link.com,2013-05-18 22:08:00,
2013-05-18 18:23:00,75.7,66.8,29.74,South,180,3.2,-999.0,74,-99.99,,,0.06,Acu-Link.com,2013-05-18 22:23:00,
2013-05-18 18:38:00,75.9,66.6,29.74,SSE,157,2.7,-999.0,73,-99.99,,,0.06,Acu-Link.com,2013-05-18 22:38:00,
2013-05-18 18:53:00,75.2,66.7,29.73,SE,135,2.2,-999.0,75,-99.99,,,0.06,Acu-Link.com,2013-05-18 22:53:00,
2013-05-18 19:08:00,74.5,66.8,29.74,SSE,157,3.2,-999.0,77,-99.99,,,0.06,Acu-Link.com,2013-05-18 23:08:00,
2013-05-18 19:23:00,73.8,66.9,29.74,SSE,157,2.7,-999.0,79,-99.99,,,0.06,Acu-Link.com,2013-05-18 23:23:00,
2013-05-18 19:38:00,73.4,66.8,29.75,SE,135,4.2,-999.0,80,-99.99,,,0.06,Acu-Link.com,2013-05-18 23:38:00,
2013-05-18 19:54:00,72.7,66.9,29.75,SSW,202,2.2,-999.0,82,-99.99,,,0.06,Acu-Link.com,2013-05-18 23:54:00,
2013-05-18 20:09:00,71.8,65.6,29.75,SSE,157,2.7,-999.0,81,-99.99,,,0.06,Acu-Link.com,2013-05-19 00:09:00,
2013-05-18 20:24:00,71.4,65.3,29.75,South,180,1.1,-999.0,81,-99.99,,,0.06,Acu-Link.com,2013-05-19 00:24:00,
2013-05-18 20:39:00,70.9,64.8,29.75,West,270,0.0,-999.0,81,-99.99,,,0.06,Acu-Link.com,2013-05-19 00:39:00,
2013-05-18 20:55:00,70.3,64.2,29.75,SE,135,3.2,-999.0,81,-99.99,,,0.06,Acu-Link.com,2013-05-19 00:55:00,
2013-05-18 21:10:00,69.6,64.2,29.75,WSW,247,0.0,-999.0,83,-99.99,,,0.06,Acu-Link.com,2013-05-19 01:10:00,
2013-05-18 21:25:00,69.1,64.4,29.76,East,90,0.0,-999.0,85,-99.99,,,0.06,Acu-Link.com,2013-05-19 01:25:00,
2013-05-18 21:41:00,68.4,64.4,29.76,East,90,0.0,-999.0,87,-99.99,,,0.06,Acu-Link.com,2013-05-19 01:41:00,
2013-05-18 21:56:00,68.2,64.5,29.76,SE,135,0.0,-999.0,88,-99.99,,,0.06,Acu-Link.com,2013-05-19 01:56:00,
2013-05-18 22:11:00,68.4,65.3,29.77,West,270,0.0,-999.0,90,-99.99,,,0.06,Acu-Link.com,2013-05-19 02:11:00,
2013-05-18 22:27:00,68.0,65.9,29.77,SSE,157,2.7,-999.0,93,-99.99,,,0.06,Acu-Link.com,2013-05-19 02:27:00,
2013-05-18 22:42:00,67.8,65.7,29.77,SSE,157,0.0,-999.0,93,-99.99,,,0.06,Acu-Link.com,2013-05-19 02:42:00,
2013-05-18 22:57:00,67.5,66.0,29.77,SSE,157,2.2,-999.0,95,-99.99,,,0.06,Acu-Link.com,2013-05-19 02:57:00,
2013-05-18 23:12:00,68.4,66.6,29.76,SSE,157,2.7,-999.0,94,-99.99,,,0.06,Acu-Link.com,2013-05-19 03:12:00,
2013-05-18 23:27:00,68.2,66.1,29.77,South,180,2.7,-999.0,93,-99.99,,,0.06,Acu-Link.com,2013-05-19 03:27:00,
2013-05-18 23:42:00,68.0,65.9,29.77,South,180,2.7,-999.0,93,-99.99,,,0.06,Acu-Link.com,2013-05-19 03:42:00,
2013-05-18 23:58:00,68.0,65.9,29.76,South,180,2.2,-999.0,93,-99.99,,,0.06,Acu-Link.com,2013-05-19 03:58:00,